Terminal Aerodrome Forecast
Issued by NWS Paducah, KY

Home | Current Version | Previous Version | Text Only | Print | Product List | Glossary On
Versions: 1 2 3 4 5 6 7 8 9 10 11 12 13 14 15 16
000
FTUS43 KPAH 280525
TAFEVV
TAF
KEVV 280525Z 2806/0106 05004KT P6SM OVC090
     FM281500 08005KT P6SM OVC070 PROB30 0101/0106 2SM -SN OVC020=

USA.gov is the U.S. government's official web portal to all federal, state and local government web resources and services.